Zurück zum Katalog

ARIANE 3 R/B

AktivGTO
NORAD 18953·ROCKET BODY·🇫🇷 France

Gestartet Mar 11, 1988 von Guiana Space Centre

Loading…

TLE

AlterndSource: Space-Track

Epoche: Sep 14, 2026, 13:05 UTC

1 18953U 88018C   26257.54575548  .00000162  00000-0  39936-3 0  9998
2 18953   6.3875 213.9284 7110428 242.9248  30.0837  2.42920178327457

Verfolge ARIANE 3 R/B in Echtzeit mit AllMySat

Download on the App Store